Skip Page Navigation
NASA JPL Caltech
NASA Logo - Jet Propulsion Laboratory + View the NASA Portal
+ Near-Earth Object (NEO) Program
Search JPL
JPL Home Earth Solar System Stars & Galaxies Technology
JPL Solar System Dynamics
BODIES ORBITS EPHEMERIDES TOOLS PHYSICAL DATA DISCOVERY FAQ SITE MAP
JPL Small-Body Database Browser
Search: [ help ]  
30306 Frigyesriesz (2000 JD)
Classification: Main-belt Asteroid          SPK-ID: 2030306
Ephemeris | Orbit Diagram | Orbital Elements | Physical Parameters | Discovery Circumstances ]

[ show orbit diagram ]
Orbital Elements at Epoch 2456400.5 (2013-Apr-18.0) TDB
Reference: MPO234985 (heliocentric ecliptic J2000)
 Element Value Uncertainty (1-sigma)   Units 
e 0.0289400 n/a  
a 2.5284992 n/a AU
q 2.4553244 n/a AU
i 2.01417 n/a deg
node 77.18540 n/a deg
peri 251.02796 n/a deg
M 351.46241 n/a deg
tp 2456435.3277514
(2013-May-22.82775140)
n/a JED
period 1468.5632018
4.02
n/a
n/a
d
yr
n 0.24513756 n/a deg/d
Q 2.6016740 n/a AU
  Orbit Determination Parameters
   # obs. used (total)      732  
   first obs. used      1973-??-??  
   last obs. used      2012-07-21  
   # oppositions      14  
   planetary ephem.      DE403  
   condition code      0  
   fit RMS      0.54  
   data source      MPC:mpn  
   producer      MPCLINUX  

Additional Information
 T_jup = 3.451 

Ephemeris | Orbit Diagram | Orbital Elements | Physical Parameters | Discovery Circumstances ]

Physical Parameter Table
Parameter Symbol Value Units Sigma Reference Notes
absolute magnitude H 14.4 mag n/a PDS3 (MPO 16569)  

30306 Frigyesriesz           Discovered 2000 May 2 by P. G. Comba at Prescott.
Frigyes Riesz (1880-1956), a Hungarian mathematician, did research in functional analysis and topology. The Riesz-Fisher theorem (proved also by Fisher in 1907) formed the mathematical basis for proving the equivalence of matrix machanics and wave mechanics, a fundamental result in early quantum mechanics.
NOTE: some special characters may not display properly (any characters within {} are an attempt to place the proper accent above a character)
Reference: 20020427/MPCPages.arcLast Updated: 2003-10-02

Alternate Designations
 2000 JD = 1973 VV = 1995 BR15 
Ephemeris | Orbit Diagram | Orbital Elements | Physical Parameters | Discovery Circumstances ]
ABOUT SSD CREDITS/AWARDS PRIVACY/COPYRIGHT GLOSSARY LINKS
FirstGov 2013-May-18 13:51 UT
(server date/time)  
NASA Home Page
Site Manager:   Donald K. Yeomans
Webmaster  Alan B. Chamberlin